[[{"header":{"parameterUnit":"m.s-1","parameterCategory":2,"la1":30.2992,"la2":30.254,"lo1":-89.0895,"lo2":-89.0443,"dy":0.0025,"dx":0.0025,"nx":19,"ny":19,"refTime":"2026-05-24T03:00:00:Z","depth":"0","parameterNumber":2,"parameterNumberName":"U-component_of_CURRENTS"},"data":[0,0,0,-0.276,-0.276,-0.2712,-0.2712,-0.2564,-0.2563,0,0,0,0,0,0,0,0,0,0,0,-0.2768,-0.2768,-0.276,-0.276,-0.2712,-0.2712,-0.2564,-0.2563,0,0,0,0,0,0,0,0,0,0,0,-0.2768,-0.2768,-0.2768,-0.2759,-0.2712,-0.2712,-0.2565,-0.2618,0,0,0,0,0,0,0,0,0,0,-0.2674,-0.2693,-0.2768,-0.2768,-0.2759,-0.2712,-0.2711,-0.2622,-0.2615,-0.2566,0,-0.2565,0,-0.2568,-0.2552,-0.2552,0,0,0,-0.2744,-0.2699,-0.2697,-0.2768,-0.2759,-0.2712,-0.2729,-0.2618,-0.2611,-0.2557,-0.2563,-0.2558,-0.2566,-0.2551,-0.2551,-0.2389,-0.2388,0,0,-0.2746,-0.2744,-0.2702,-0.2692,-0.2752,-0.2731,-0.2728,-0.2615,-0.26,-0.2562,-0.2555,-0.2563,-0.255,-0.2549,-0.2389,-0.2388,0,0,0,-0.2765,-0.2746,-0.2748,-0.2697,-0.27,-0.273,-0.2726,-0.2605,-0.2609,-0.2554,-0.2562,-0.2549,-0.2548,-0.239,-0.2389,-0.2359,0,0,0,-0.2765,-0.2758,-0.2749,-0.2745,-0.2703,-0.2662,-0.2719,-0.2616,-0.2605,-0.2562,-0.2549,-0.2546,-0.2391,-0.2389,-0.2362,-0.2324,0,0,0,-0.277,-0.2758,-0.2758,-0.2745,-0.2735,-0.2665,-0.2662,-0.2614,-0.2609,-0.2552,-0.2546,-0.2391,-0.239,-0.2364,-0.2328,-0.2174,0,0,0,-0.2762,-0.2737,-0.2757,-0.2732,-0.2735,-0.2693,-0.2663,-0.2622,-0.2577,-0.2549,-0.239,-0.2389,-0.2364,-0.233,-0.2178,-0.2027,-0.1993,0,0,-0.2724,-0.2732,-0.272,-0.2738,-0.2697,-0.2698,-0.2623,-0.2562,-0.2532,-0.242,-0.2417,-0.2361,-0.2328,-0.2175,-0.1943,-0.1912,0,0,0,-0.2704,-0.2679,-0.2675,-0.2659,-0.2655,-0.2598,-0.2566,-0.2525,-0.2428,-0.2501,-0.2339,-0.2318,-0.2222,-0.2141,-0.2116,-0.2038,-0.2382,-0.2382,-0.2383,-0.2586,-0.2612,-0.2566,-0.2573,-0.2554,-0.2522,-0.2458,-0.2386,-0.2392,-0.2342,-0.228,-0.2123,-0.2039,-0.2017,-0.1942,-0.2276,-0.2276,-0.2275,-0.2275,-0.2464,-0.2408,-0.2459,-0.2423,-0.2421,-0.2368,-0.2307,-0.2299,-0.215,-0.2217,-0.2124,-0.2098,-0.1988,-0.1917,-0.2273,-0.2274,-0.2274,-0.2274,-0.2274,-0.2331,-0.2301,-0.2319,-0.2265,-0.2231,-0.224,-0.2102,-0.2105,-0.2081,-0.2013,-0.1845,-0.1844,-0.1785,-0.1944,-0.1943,-0.1942,-0.1941,-0.1941,-0.194,-0.2153,-0.2169,-0.209,-0.208,-0.2035,-0.1996,-0.1958,-0.1873,-0.1769,-0.1759,-0.1756,-0.1702,-0.2019,-0.2037,-0.1927,-0.193,-0.1931,-0.1933,-0.1933,-0.1893,-0.194,-0.1792,-0.1742,-0.1681,-0.1607,-0.1638,-0.1492,-0.1409,-0.1317,-0.1338,-0.159,-0.1556,-0.1576,-0.1581,-0.1359,-0.1359,-0.1359,-0.1359,-0.1697,-0.1723,-0.1506,-0.139,-0.1327,-0.1394,-0.1207,-0.1135,-0.1055,-0.0985,-0.1062,-0.1135,-0.1162,-0.1112,-0.1142,-0.1142,-0.0814,-0.0813,-0.0813,-0.1474,-0.1453,-0.1249,-0.1214,-0.1166,-0.1182,-0.1032,-0.0844,-0.0718,-0.0791,-0.0978,-0.1001,-0.1122,-0.117,-0.1114,-0.1163,-0.1171,0,0]},{"header":{"parameterUnit":"m.s-1","parameterCategory":2,"la1":30.2992,"la2":30.254,"lo1":-89.0895,"lo2":-89.0443,"dy":0.0025,"dx":0.0025,"nx":19,"ny":19,"refTime":"2026-05-24T03:00:00:Z","depth":"0","parameterNumber":3,"parameterNumberName":"V-component_of_CURRENTS"},"data":[0,0,0,0.0783,0.0786,0.0986,0.0987,0.1241,0.1243,0,0,0,0,0,0,0,0,0,0,0,0.0708,0.0709,0.0783,0.0787,0.0986,0.0987,0.1241,0.1243,0,0,0,0,0,0,0,0,0,0,0,0.0708,0.0709,0.0709,0.0787,0.0986,0.0987,0.124,0.1096,0,0,0,0,0,0,0,0,0,0,0.0905,0.0806,0.0708,0.0709,0.0788,0.0985,0.0987,0.109,0.1105,0.1142,0,0.1154,0,0.1196,0.1258,0.1258,0,0,0,0.0813,0.0793,0.0864,0.071,0.079,0.0985,0.0903,0.1099,0.1116,0.1163,0.1158,0.1168,0.1201,0.1259,0.126,0.1417,0.1418,0,0,0.0802,0.0737,0.0851,0.0874,0.0818,0.0897,0.0909,0.111,0.1107,0.1159,0.1175,0.1205,0.1261,0.1262,0.1417,0.1418,0,0,0,0.0752,0.0728,0.0795,0.0863,0.0895,0.0902,0.0916,0.1099,0.1125,0.1178,0.1208,0.1262,0.1264,0.1417,0.1417,0.1319,0,0,0,0.0747,0.0699,0.0789,0.0752,0.089,0.0994,0.09,0.1111,0.1135,0.1206,0.1262,0.1267,0.1417,0.1417,0.1322,0.1307,0,0,0,0.0703,0.0694,0.0714,0.0748,0.0826,0.0992,0.1031,0.1118,0.1153,0.1259,0.1267,0.1417,0.1417,0.1324,0.131,0.1347,0,0,0,0.0638,0.0644,0.0711,0.0748,0.0823,0.0959,0.103,0.1141,0.1228,0.1263,0.1417,0.1417,0.1324,0.1312,0.1348,0.1362,0.1358,0,0,0.0613,0.0639,0.0672,0.0737,0.0832,0.0935,0.1027,0.1163,0.1242,0.1356,0.136,0.1321,0.131,0.1348,0.1375,0.137,0,0,0,0.0646,0.0659,0.0703,0.0778,0.0894,0.0982,0.1115,0.1161,0.1262,0.129,0.1353,0.1351,0.1377,0.1388,0.1385,0.1329,0.1418,0.1418,0.1418,0.0487,0.0603,0.0664,0.0803,0.0885,0.1025,0.1089,0.1179,0.125,0.1266,0.1293,0.1288,0.1296,0.1295,0.1235,0.1305,0.1305,0.1305,0.1304,0.0446,0.0491,0.0638,0.0736,0.0857,0.0943,0.1079,0.1119,0.1208,0.124,0.127,0.1311,0.1286,0.1223,0.1299,0.13,0.13,0.1301,0.1301,0.0306,0.0359,0.0447,0.0623,0.0741,0.0899,0.1016,0.1084,0.115,0.1165,0.1259,0.1261,0.1193,0.1202,0.1202,0.1202,0.1202,0.1202,0.1202,0.0133,0.0241,0.0355,0.0529,0.0649,0.08,0.0989,0.1084,0.1176,0.1192,0.1193,0.1189,0.1259,0.1248,0.1203,0.1203,0.1203,0.1203,0.1203,0.004,0.01,0.0278,0.0406,0.0691,0.0805,0.0966,0.1149,0.1232,0.127,0.1159,0.1224,0.1278,0.1282,0.1275,0.124,0.124,0.124,0.124,-0.002,0.0023,0.0329,0.0545,0.0741,0.0847,0.0968,0.1066,0.1139,0.1105,0.1139,0.1119,0.112,0.1165,0.1171,0.1162,0.11,0.1099,0.1099,0.0006,0.011,0.0338,0.0585,0.0813,0.0885,0.0907,0.0907,0.1004,0.1086,0.1052,0.1058,0.1021,0.1028,0.1095,0.1108,0.1094,0,0]}],[{"header":{"parameterUnit":"m.s-1","parameterCategory":2,"la1":30.2992,"la2":30.254,"lo1":-89.0895,"lo2":-89.0443,"dy":0.0025,"dx":0.0025,"nx":19,"ny":19,"refTime":"2026-05-24T03:00:00:Z","depth":"2","parameterNumber":2,"parameterNumberName":"U-component_of_CURRENTS"},"data":[0,0,0,-0.2247,-0.2248,-0.2287,-0.2287,-0.22,-0.2199,0,0,0,0,0,0,0,0,0,0,0,-0.2225,-0.2225,-0.2247,-0.2248,-0.2287,-0.2287,-0.22,-0.2199,0,0,0,0,0,0,0,0,0,0,0,-0.2225,-0.2225,-0.2226,-0.2249,-0.2287,-0.2287,-0.2201,-0.2201,0,0,0,0,0,0,0,0,0,0,-0.2179,-0.2171,-0.2225,-0.2226,-0.2249,-0.2287,-0.2287,-0.2202,-0.2201,-0.2149,0,-0.2166,0,-0.2188,-0.2192,-0.2191,0,0,0,-0.2231,-0.2173,-0.2201,-0.2226,-0.225,-0.2287,-0.2265,-0.2203,-0.2201,-0.2146,-0.2165,-0.2163,-0.2187,-0.2191,-0.2191,-0.2046,-0.2046,0,0,-0.2229,-0.2209,-0.2203,-0.22,-0.2271,-0.2264,-0.2266,-0.2203,-0.2191,-0.2165,-0.2162,-0.2186,-0.219,-0.219,-0.2047,-0.2046,0,0,0,-0.2235,-0.2207,-0.2238,-0.2202,-0.2225,-0.2265,-0.2268,-0.2194,-0.221,-0.2161,-0.2185,-0.219,-0.2188,-0.2048,-0.2047,-0.2051,0,0,0,-0.2232,-0.2212,-0.2238,-0.2222,-0.2228,-0.2226,-0.226,-0.2214,-0.2209,-0.2185,-0.219,-0.2187,-0.2049,-0.2047,-0.2053,-0.1948,0,0,0,-0.2221,-0.221,-0.2223,-0.2222,-0.225,-0.2229,-0.2241,-0.2214,-0.2223,-0.2191,-0.2187,-0.2049,-0.2048,-0.2054,-0.1954,-0.1804,0,0,0,-0.2187,-0.2174,-0.2222,-0.2249,-0.225,-0.2257,-0.2242,-0.2236,-0.2213,-0.2189,-0.2049,-0.2047,-0.2055,-0.1957,-0.1809,-0.1576,-0.1533,0,0,-0.2145,-0.2168,-0.2197,-0.2243,-0.2239,-0.225,-0.2224,-0.2197,-0.2158,-0.2059,-0.2057,-0.2052,-0.1954,-0.1805,-0.1473,-0.1432,0,0,0,-0.2172,-0.2165,-0.218,-0.2212,-0.2241,-0.2191,-0.2202,-0.2179,-0.21,-0.214,-0.2014,-0.1948,-0.1856,-0.1726,-0.1694,-0.2038,-0.2039,-0.2039,-0.2039,-0.2058,-0.2125,-0.2105,-0.2151,-0.2155,-0.2153,-0.2095,-0.2043,-0.2079,-0.2037,-0.193,-0.1773,-0.164,-0.1612,-0.1959,-0.1959,-0.1959,-0.1959,-0.1959,-0.1987,-0.1966,-0.2026,-0.202,-0.202,-0.2011,-0.1957,-0.1968,-0.1807,-0.1892,-0.1805,-0.1708,-0.1576,-0.1958,-0.1958,-0.1958,-0.1958,-0.1958,-0.1958,-0.1877,-0.1849,-0.19,-0.1896,-0.1853,-0.1879,-0.1731,-0.1724,-0.1711,-0.1621,-0.1411,-0.1409,-0.1707,-0.1584,-0.1583,-0.1582,-0.1581,-0.158,-0.1579,-0.1736,-0.1762,-0.172,-0.1732,-0.1696,-0.1641,-0.1563,-0.1461,-0.1305,-0.128,-0.1279,-0.1642,-0.1655,-0.1679,-0.1563,-0.1566,-0.1568,-0.1569,-0.1571,-0.1553,-0.1602,-0.1503,-0.1467,-0.1398,-0.123,-0.1232,-0.0972,-0.0874,-0.0736,-0.1066,-0.1084,-0.1015,-0.104,-0.1045,-0.0771,-0.0771,-0.0771,-0.0771,-0.141,-0.1442,-0.1282,-0.1176,-0.1072,-0.1005,-0.0672,-0.0566,-0.0543,-0.0542,-0.0553,-0.0664,-0.0698,-0.062,-0.0655,-0.0658,-0.0282,-0.0282,-0.0281,-0.128,-0.1248,-0.1069,-0.1018,-0.0912,-0.0735,-0.0387,-0.0249,-0.023,-0.0277,-0.0624,-0.0708,-0.0907,-0.0947,-0.0865,-0.0906,-0.0924,0,0]},{"header":{"parameterUnit":"m.s-1","parameterCategory":2,"la1":30.2992,"la2":30.254,"lo1":-89.0895,"lo2":-89.0443,"dy":0.0025,"dx":0.0025,"nx":19,"ny":19,"refTime":"2026-05-24T03:00:00:Z","depth":"2","parameterNumber":3,"parameterNumberName":"V-component_of_CURRENTS"},"data":[0,0,0,0.0202,0.0206,0.0453,0.0455,0.0739,0.0741,0,0,0,0,0,0,0,0,0,0,0,0.0101,0.0102,0.0201,0.0206,0.0453,0.0455,0.0739,0.0741,0,0,0,0,0,0,0,0,0,0,0,0.0101,0.0102,0.0103,0.0207,0.0453,0.0455,0.0738,0.0566,0,0,0,0,0,0,0,0,0,0,0.0333,0.0222,0.0102,0.0103,0.0208,0.0453,0.0455,0.0559,0.0577,0.0609,0,0.0621,0,0.0682,0.0757,0.0758,0,0,0,0.0235,0.0206,0.0283,0.0103,0.021,0.0452,0.035,0.0569,0.059,0.0633,0.0626,0.0638,0.0687,0.0758,0.0759,0.0901,0.09,0,0,0.0221,0.0147,0.0268,0.0295,0.0241,0.0342,0.0357,0.0583,0.0582,0.0627,0.0645,0.0691,0.076,0.0762,0.0901,0.09,0,0,0,0.0163,0.0137,0.021,0.0282,0.0327,0.0348,0.0366,0.0573,0.0599,0.0648,0.0695,0.0761,0.0764,0.0901,0.0901,0.0865,0,0,0,0.0156,0.0102,0.0202,0.0162,0.0321,0.0454,0.035,0.0583,0.0611,0.0693,0.0761,0.0766,0.0901,0.0901,0.0867,0.0741,0,0,0,0.0096,0.0096,0.0116,0.0157,0.0255,0.0452,0.0493,0.0591,0.0638,0.0758,0.0767,0.0901,0.0901,0.0868,0.0747,0.0715,0,0,0,0.0026,0.0022,0.0113,0.0173,0.0252,0.0393,0.0493,0.0617,0.0712,0.0762,0.0901,0.0901,0.0868,0.0751,0.0718,0.0606,0.0581,0,0,-0.0017,0.0015,0.0069,0.0158,0.0245,0.0363,0.048,0.0646,0.0713,0.0831,0.0835,0.0866,0.0747,0.0715,0.0577,0.0553,0,0,0,0.0037,0.0054,0.01,0.0197,0.0317,0.0398,0.0577,0.0655,0.0783,0.0763,0.0866,0.0789,0.0772,0.0713,0.0693,0.0898,0.0898,0.0898,0.0898,-0.0108,0.0021,0.0069,0.0211,0.0285,0.0453,0.0512,0.0639,0.0767,0.0808,0.0766,0.0705,0.0645,0.0628,0.083,0.083,0.083,0.083,0.083,-0.0126,-0.0081,0.0045,0.0129,0.0231,0.0349,0.0496,0.0588,0.0643,0.0749,0.0739,0.0681,0.0604,0.0827,0.0827,0.0828,0.0828,0.0828,0.0829,-0.0224,-0.0205,-0.0102,0.0044,0.0099,0.0263,0.0259,0.0376,0.0539,0.0499,0.0486,0.0485,0.0638,0.0554,0.0553,0.0552,0.0552,0.0551,0.0551,-0.0363,-0.0277,-0.0195,-0.0071,-0.0039,-0.0006,0.0115,0.0147,0.0253,0.0343,0.0345,0.061,0.0619,0.062,0.0541,0.0543,0.0544,0.0545,0.0546,-0.0424,-0.037,-0.0274,-0.0234,-0.02,-0.0266,-0.0187,-0.0077,-0.0011,0.0023,0.0272,0.0282,0.0261,0.0277,0.0269,0.0102,0.0102,0.0102,0.0102,-0.0471,-0.0428,-0.032,-0.0321,-0.0388,-0.0414,-0.0373,-0.0225,-0.0057,-0.0022,-0.0016,0.0059,0.0079,0.0053,0.0074,0.0066,-0.0155,-0.0155,-0.0155,-0.0423,-0.0412,-0.0369,-0.0355,-0.0479,-0.053,-0.0421,-0.0154,-0.0065,-0.0158,0.0013,0.0071,0.0202,0.0224,0.0207,0.0232,0.0227,0,0]}],[{"header":{"parameterUnit":"m.s-1","parameterCategory":2,"la1":30.2992,"la2":30.254,"lo1":-89.0895,"lo2":-89.0443,"dy":0.0025,"dx":0.0025,"nx":19,"ny":19,"refTime":"2026-05-24T03:00:00:Z","depth":"4","parameterNumber":2,"parameterNumberName":"U-component_of_CURRENTS"},"data":[0,0,0,0.009,0.009,0.0029,0.0029,-0.0221,-0.0223,0,0,0,0,0,0,0,0,0,0,0,0.0105,0.0106,0.009,0.009,0.003,0.0029,-0.022,-0.0223,0,0,0,0,0,0,0,0,0,0,0,0.0105,0.0106,0.0106,0.009,0.003,0.0029,-0.022,-0.014,0,0,0,0,0,0,0,0,0,0,-0.0064,-0.0002,0.0105,0.0106,0.009,0.003,0.0029,-0.0135,-0.0145,-0.023,0,-0.0213,0,-0.0208,-0.024,-0.0241,0,0,0,0.0052,0.0007,-0.0011,0.0106,0.009,0.003,0.0046,-0.014,-0.0152,-0.0245,-0.0216,-0.0224,-0.0213,-0.0242,-0.0243,-0.0436,-0.0436,0,0,0.0055,0.0082,-0.0001,-0.0017,0.0105,0.0048,0.0045,-0.0145,-0.0148,-0.0216,-0.0229,-0.0217,-0.0243,-0.0245,-0.0436,-0.0436,0,0,0,0.0091,0.0084,0.0074,-0.0008,0.0004,0.0048,0.0043,-0.014,-0.0142,-0.0231,-0.022,-0.0245,-0.0248,-0.0436,-0.0436,-0.0422,0,0,0,0.0091,0.0108,0.0076,0.0089,0.0009,-0.0042,0.0053,-0.013,-0.015,-0.0218,-0.0245,-0.025,-0.0435,-0.0436,-0.0421,-0.0384,0,0,0,0.0103,0.0109,0.0112,0.0091,0.0083,-0.0038,-0.0052,-0.0134,-0.0143,-0.0241,-0.0251,-0.0435,-0.0436,-0.0421,-0.0385,-0.0373,0,0,0,0.0114,0.0121,0.0113,0.0118,0.0084,0.0027,-0.0051,-0.0123,-0.0201,-0.0246,-0.0435,-0.0436,-0.0421,-0.0386,-0.0374,-0.0291,0,0,0,0.0122,0.0123,0.0122,0.0114,0.0094,0.0031,-0.0043,-0.0176,-0.0241,-0.0392,-0.0395,-0.0421,-0.0385,-0.0374,-0.0321,0,0,0,0,0.0123,0.0126,0.0118,0.0111,0.0067,-0.0009,-0.0117,-0.0185,-0.032,-0.028,-0.0435,-0.0412,-0.0406,-0.0361,-0.0438,-0.0438,-0.0438,-0.0438,-0.0438,0.0143,0.0129,0.0118,0.0084,0.0042,-0.0059,-0.0137,-0.0255,-0.0327,-0.038,-0.0412,-0.0405,-0.036,-0.0443,-0.0443,-0.0443,-0.0443,-0.0443,-0.0443,0.0161,0.0139,0.0116,0.0092,0.0013,-0.0067,-0.0207,-0.0267,-0.0374,-0.0421,-0.0416,-0.0364,-0.0442,-0.0442,-0.0442,-0.0442,-0.0442,-0.0442,-0.0442,0.0139,0.0126,0.0118,0.0081,0.0006,-0.0087,-0.0148,-0.0252,-0.0341,-0.0355,-0.031,-0.0386,-0.0373,-0.0359,-0.0359,-0.0359,-0.0359,-0.0359,-0.0358,0.0123,0.0116,0.0094,0.0055,0.0017,-0.0039,-0.0122,-0.0149,-0.0232,-0.0261,-0.0341,-0.0376,-0.0379,-0.0368,-0.0355,-0.0356,-0.0356,-0.0357,-0.0357,0.0107,0.0077,0.0072,0.0045,0.0015,-0.001,-0.0057,-0.0069,-0.0089,-0.011,-0.0221,-0.0228,-0.0218,-0.0224,-0.0207,-0.0146,-0.0145,-0.0144,0,0.0073,0.0067,0.0065,0.0057,0.0045,0.0013,0.004,0.0023,-0.0057,-0.0069,-0.0116,-0.0242,-0.0247,-0.0237,-0.0241,-0.0221,0,0,0,0.0077,0.0076,0.0068,0.0062,0.0063,0.0061,0.0048,0.0051,-0.0058,-0.0013,-0.0115,-0.0122,-0.0209,-0.0346,-0.0347,-0.0351,-0.0333,0,0]},{"header":{"parameterUnit":"m.s-1","parameterCategory":2,"la1":30.2992,"la2":30.254,"lo1":-89.0895,"lo2":-89.0443,"dy":0.0025,"dx":0.0025,"nx":19,"ny":19,"refTime":"2026-05-24T03:00:00:Z","depth":"4","parameterNumber":3,"parameterNumberName":"V-component_of_CURRENTS"},"data":[0,0,0,-0.0938,-0.0942,-0.1136,-0.1137,-0.1272,-0.1273,0,0,0,0,0,0,0,0,0,0,0,-0.0891,-0.0892,-0.0938,-0.0942,-0.1136,-0.1137,-0.1272,-0.1273,0,0,0,0,0,0,0,0,0,0,0,-0.089,-0.0892,-0.0893,-0.0942,-0.1135,-0.1137,-0.1272,-0.1161,0,0,0,0,0,0,0,0,0,0,-0.099,-0.0958,-0.0891,-0.0893,-0.0943,-0.1135,-0.1137,-0.1157,-0.1168,-0.1142,0,-0.1173,0,-0.1201,-0.1276,-0.1276,0,0,0,-0.0973,-0.095,-0.0985,-0.0893,-0.0945,-0.1135,-0.1057,-0.1164,-0.1176,-0.1155,-0.1176,-0.1181,-0.1203,-0.1276,-0.1277,-0.1266,-0.1266,0,0,-0.0963,-0.0942,-0.0977,-0.0992,-0.0993,-0.1051,-0.1063,-0.1173,-0.1191,-0.1176,-0.1184,-0.1205,-0.1277,-0.1277,-0.1267,-0.1266,0,0,0,-0.0911,-0.0934,-0.0971,-0.0986,-0.1017,-0.1055,-0.1069,-0.1188,-0.1195,-0.1186,-0.1207,-0.1277,-0.1278,-0.1267,-0.1266,-0.1248,0,0,0,-0.0906,-0.0901,-0.0966,-0.0958,-0.1015,-0.112,-0.1081,-0.1189,-0.1202,-0.1206,-0.1277,-0.1278,-0.1268,-0.1267,-0.1249,-0.1185,0,0,0,-0.0882,-0.0899,-0.0918,-0.0956,-0.1022,-0.1119,-0.1137,-0.1194,-0.1211,-0.1276,-0.1278,-0.1268,-0.1267,-0.1251,-0.1189,-0.1143,0,0,0,-0.0859,-0.0878,-0.0918,-0.0969,-0.1019,-0.1089,-0.1137,-0.123,-0.129,-0.1277,-0.1268,-0.1267,-0.1252,-0.1192,-0.1146,-0.1077,0,0,0,-0.0859,-0.0878,-0.0911,-0.095,-0.0982,-0.1064,-0.1097,-0.1212,-0.125,-0.123,-0.1232,-0.1249,-0.1189,-0.1144,-0.1006,0,0,0,0,-0.0896,-0.0911,-0.0933,-0.0978,-0.103,-0.1046,-0.1155,-0.1181,-0.1232,-0.1272,-0.1229,-0.119,-0.1163,-0.1131,-0.1261,-0.1261,-0.1261,-0.1261,-0.1261,-0.0851,-0.0896,-0.0915,-0.0958,-0.0994,-0.1051,-0.1078,-0.1118,-0.1186,-0.12,-0.1163,-0.109,-0.1056,-0.1179,-0.1179,-0.1179,-0.1179,-0.1179,-0.1179,-0.0813,-0.0828,-0.0872,-0.0903,-0.0919,-0.0949,-0.0987,-0.1045,-0.1041,-0.1107,-0.1084,-0.1098,-0.1176,-0.1177,-0.1177,-0.1177,-0.1178,-0.1178,-0.1178,-0.0775,-0.0776,-0.0809,-0.0829,-0.0841,-0.0888,-0.0857,-0.0916,-0.0982,-0.0971,-0.0941,-0.1045,-0.1059,-0.0983,-0.0982,-0.0982,-0.0982,-0.0981,-0.0981,-0.0705,-0.0725,-0.0716,-0.0755,-0.0764,-0.0774,-0.0786,-0.0779,-0.0839,-0.0852,-0.0955,-0.1022,-0.1029,-0.1045,-0.0973,-0.0975,-0.0976,-0.0976,-0.0977,-0.0651,-0.0665,-0.0636,-0.0637,-0.0641,-0.0648,-0.0655,-0.0646,-0.0615,-0.063,-0.0792,-0.0803,-0.0787,-0.0798,-0.0808,-0.0662,-0.0661,-0.066,0,-0.0609,-0.0614,-0.0571,-0.054,-0.0519,-0.0562,-0.0486,-0.05,-0.058,-0.0591,-0.0646,-0.083,-0.0839,-0.0826,-0.0834,-0.0845,0,0,0,-0.0557,-0.0549,-0.052,-0.0511,-0.0487,-0.0467,-0.0476,-0.0474,-0.0572,-0.0529,-0.0629,-0.0637,-0.0812,-0.0951,-0.0953,-0.096,-0.0986,0,0]}]]